PAL240 RPVI-RPVA

Flight info

Callsign PAL240
Flight time 0h 36m
Altitude 25000
Route CDZ2B CADIZ W6A MCT G578 PONSO PONSO2R
Aircraft A321/M-SDE3FGHIRWY/LB1

Departure

Time 2026-04-15 11:30
Airport Iloilo International Airport (RPVI)

Arrival

Time 2026-04-15 12:07
Airport Daniel Z. Romualdez Airport (RPVA)
Time Latitude Longitude Altitude Speed Heading
2026-04-15 11:17 10.83116 122.49646 140 ft 0 kts 110°
2026-04-15 11:21 10.83123 122.49627 140 ft 4 kts 110°
2026-04-15 11:22 10.83132 122.49601 140 ft 3 kts 109°
2026-04-15 11:22 10.83137 122.49579 140 ft 4 kts 74°
2026-04-15 11:22 10.83124 122.49561 140 ft 4 kts 25°
2026-04-15 11:22 10.83110 122.49555 140 ft 1 kts 19°
2026-04-15 11:23 10.83108 122.49554 140 ft 0 kts 19°
2026-04-15 11:26 10.83118 122.49558 140 ft 6 kts 19°
2026-04-15 11:26 10.83196 122.49587 140 ft 18 kts 20°
2026-04-15 11:26 10.83345 122.49643 140 ft 24 kts 20°
2026-04-15 11:27 10.83483 122.49662 140 ft 18 kts 323°
2026-04-15 11:27 10.83536 122.49543 140 ft 20 kts 290°
2026-04-15 11:27 10.83612 122.49455 141 ft 16 kts
2026-04-15 11:27 10.83745 122.49498 140 ft 26 kts 20°
2026-04-15 11:28 10.83946 122.49572 140 ft 33 kts 20°
2026-04-15 11:28 10.84165 122.49652 138 ft 29 kts 20°
2026-04-15 11:28 10.84310 122.49691 140 ft 17 kts 19°
2026-04-15 11:28 10.84341 122.49737 140 ft 2 kts 139°
2026-04-15 11:29 10.84311 122.49729 140 ft 6 kts 221°
2026-04-15 11:29 10.84271 122.49691 140 ft 10 kts 204°
2026-04-15 11:29 10.84248 122.49684 139 ft 5 kts 199°
2026-04-15 11:29 10.84115 122.49634 138 ft 66 kts 200°
2026-04-15 11:30 10.83006 122.49221 236 ft 172 kts 200°
2026-04-15 11:30 10.81880 122.48802 1122 ft 173 kts 197°
2026-04-15 11:30 10.81083 122.48695 1757 ft 172 kts 169°
2026-04-15 11:30 10.80086 122.49288 2375 ft 173 kts 123°
2026-04-15 11:31 10.79671 122.50464 2735 ft 187 kts 87°
2026-04-15 11:31 10.80126 122.51725 2975 ft 204 kts 48°
2026-04-15 11:31 10.81330 122.52649 3210 ft 232 kts 33°
2026-04-15 11:31 10.82739 122.53620 3854 ft 254 kts 41°
2026-04-15 11:32 10.83708 122.55146 4815 ft 264 kts 68°
2026-04-15 11:32 10.84278 122.56946 5893 ft 269 kts 74°
2026-04-15 11:32 10.84737 122.58814 6925 ft 275 kts 76°
2026-04-15 11:32 10.85165 122.60720 7966 ft 278 kts 76°
2026-04-15 11:33 10.85599 122.62654 8987 ft 283 kts 76°
2026-04-15 11:33 10.86053 122.64617 9970 ft 287 kts 76°
2026-04-15 11:33 10.86540 122.66655 10493 ft 308 kts 75°
2026-04-15 11:33 10.87080 122.68859 10871 ft 332 kts 75°
2026-04-15 11:34 10.87656 122.71174 11498 ft 342 kts 75°
2026-04-15 11:34 10.88249 122.73539 12302 ft 348 kts 75°
2026-04-15 11:34 10.88853 122.75941 13111 ft 353 kts 75°
2026-04-15 11:34 10.89465 122.78375 13890 ft 357 kts 75°
2026-04-15 11:35 10.90084 122.80837 14628 ft 361 kts 75°
2026-04-15 11:35 10.90706 122.83320 15382 ft 364 kts 75°
2026-04-15 11:35 10.91334 122.85831 16146 ft 368 kts 75°
2026-04-15 11:35 10.91969 122.88369 16908 ft 372 kts 75°
2026-04-15 11:36 10.92611 122.90924 17676 ft 375 kts 75°
2026-04-15 11:36 10.93262 122.93517 18407 ft 380 kts 75°
2026-04-15 11:36 10.93911 122.96116 19070 ft 383 kts 75°
2026-04-15 11:36 10.94557 122.98773 19746 ft 387 kts 76°
2026-04-15 11:37 10.95163 123.01458 20419 ft 391 kts 77°
2026-04-15 11:37 10.95754 123.04182 21089 ft 395 kts 77°
2026-04-15 11:37 10.96337 123.06926 21754 ft 400 kts 77°
2026-04-15 11:37 10.96930 123.09708 22417 ft 404 kts 77°
2026-04-15 11:38 10.97525 123.12475 23044 ft 408 kts 77°
2026-04-15 11:38 10.98139 123.15304 23617 ft 412 kts 77°
2026-04-15 11:38 10.98763 123.18166 24111 ft 415 kts 77°
2026-04-15 11:38 10.99397 123.21056 24592 ft 419 kts 77°
2026-04-15 11:39 11.00033 123.23942 24816 ft 421 kts 78°
2026-04-15 11:39 11.00397 123.26915 24882 ft 421 kts 89°
2026-04-15 11:39 11.00098 123.29877 24890 ft 421 kts 102°
2026-04-15 11:39 10.99140 123.32689 24895 ft 422 kts 115°
2026-04-15 11:40 10.97583 123.35223 24891 ft 423 kts 128°
2026-04-15 11:40 10.95539 123.37385 24887 ft 425 kts 135°
2026-04-15 11:40 10.93376 123.39459 24892 ft 429 kts 135°
2026-04-15 11:40 10.91198 123.41543 24892 ft 430 kts 135°
2026-04-15 11:41 10.89015 123.43631 24894 ft 431 kts 135°
2026-04-15 11:41 10.86860 123.45695 24892 ft 431 kts 135°
2026-04-15 11:41 10.84677 123.47788 24889 ft 431 kts 135°
2026-04-15 11:41 10.82494 123.49882 24888 ft 431 kts 135°
2026-04-15 11:42 10.80316 123.51974 24883 ft 430 kts 135°
2026-04-15 11:42 10.78138 123.54064 24882 ft 430 kts 135°
2026-04-15 11:42 10.75957 123.56158 24882 ft 430 kts 135°
2026-04-15 11:42 10.73781 123.58241 24876 ft 430 kts 135°
2026-04-15 11:43 10.71597 123.60328 24878 ft 430 kts 135°
2026-04-15 11:43 10.69418 123.62412 24879 ft 430 kts 135°
2026-04-15 11:43 10.67238 123.64497 24869 ft 430 kts 135°
2026-04-15 11:43 10.65061 123.66578 24862 ft 430 kts 135°
2026-04-15 11:44 10.62886 123.68661 24875 ft 430 kts 135°
2026-04-15 11:44 10.60705 123.70749 24873 ft 430 kts 135°
2026-04-15 11:44 10.58530 123.72831 24869 ft 430 kts 135°
2026-04-15 11:44 10.56351 123.74916 24872 ft 430 kts 136°
2026-04-15 11:45 10.54172 123.77003 24875 ft 430 kts 135°
2026-04-15 11:45 10.51998 123.79086 24878 ft 430 kts 135°
2026-04-15 11:45 10.49820 123.81173 24875 ft 430 kts 135°
2026-04-15 11:45 10.47646 123.83256 24876 ft 430 kts 135°
2026-04-15 11:46 10.45462 123.85348 24877 ft 430 kts 135°
2026-04-15 11:46 10.43314 123.87402 24885 ft 430 kts 136°
2026-04-15 11:46 10.41133 123.89484 24880 ft 430 kts 136°
2026-04-15 11:46 10.38955 123.91568 24881 ft 430 kts 136°
2026-04-15 11:47 10.36887 123.93758 24885 ft 429 kts 125°
2026-04-15 11:47 10.35503 123.96422 24879 ft 426 kts 107°
2026-04-15 11:47 10.35024 123.99361 24884 ft 425 kts 89°
2026-04-15 11:47 10.35499 124.02324 24878 ft 425 kts 71°
2026-04-15 11:48 10.36867 124.04970 24874 ft 426 kts 53°
2026-04-15 11:48 10.38820 124.07245 24870 ft 426 kts 49°
2026-04-15 11:48 10.40813 124.09480 24870 ft 427 kts 48°
2026-04-15 11:48 10.42806 124.11714 24869 ft 427 kts 49°
2026-04-15 11:49 10.44804 124.13953 24866 ft 427 kts 49°
2026-04-15 11:49 10.46800 124.16192 24741 ft 429 kts 49°
2026-04-15 11:49 10.48801 124.18442 24521 ft 429 kts 49°
2026-04-15 11:49 10.50790 124.20684 23968 ft 426 kts 49°
2026-04-15 11:50 10.52767 124.22914 23256 ft 424 kts 49°
2026-04-15 11:50 10.54734 124.25137 22523 ft 420 kts 49°
2026-04-15 11:50 10.56676 124.27329 21892 ft 415 kts 49°
2026-04-15 11:50 10.58592 124.29493 21277 ft 410 kts 49°
2026-04-15 11:51 10.60472 124.31614 20690 ft 406 kts 48°
2026-04-15 11:51 10.62381 124.33765 20123 ft 402 kts 48°
2026-04-15 11:51 10.64221 124.35838 19581 ft 399 kts 48°
2026-04-15 11:51 10.66077 124.37928 19033 ft 397 kts 48°
2026-04-15 11:52 10.67919 124.40004 18493 ft 394 kts 48°
2026-04-15 11:52 10.69753 124.42070 17873 ft 392 kts 48°
2026-04-15 11:52 10.71568 124.44116 17284 ft 388 kts 48°
2026-04-15 11:52 10.73366 124.46146 16698 ft 384 kts 48°
2026-04-15 11:53 10.75144 124.48156 16098 ft 380 kts 48°
2026-04-15 11:53 10.76905 124.50146 15492 ft 376 kts 48°
2026-04-15 11:53 10.78646 124.52114 14888 ft 373 kts 48°
2026-04-15 11:53 10.80375 124.54070 14277 ft 370 kts 48°
2026-04-15 11:54 10.82090 124.56012 13673 ft 368 kts 48°
2026-04-15 11:54 10.83796 124.57943 13005 ft 365 kts 48°
2026-04-15 11:54 10.85462 124.59866 12403 ft 360 kts 52°
2026-04-15 11:54 10.86773 124.62013 11797 ft 356 kts 65°
2026-04-15 11:55 10.87560 124.64345 11202 ft 352 kts 77°
2026-04-15 11:55 10.87937 124.66797 10615 ft 349 kts 82°
2026-04-15 11:55 10.88272 124.69193 10440 ft 334 kts 82°
2026-04-15 11:55 10.88597 124.71475 10324 ft 318 kts 81°
2026-04-15 11:56 10.88912 124.73659 10208 ft 304 kts 81°
2026-04-15 11:56 10.89217 124.75755 9999 ft 295 kts 81°
2026-04-15 11:56 10.89513 124.77799 9868 ft 290 kts 81°
2026-04-15 11:56 10.89806 124.79825 9750 ft 289 kts 81°
2026-04-15 11:57 10.90096 124.81854 9501 ft 288 kts 81°
2026-04-15 11:57 10.90657 124.85774 8934 ft 278 kts 81°
2026-04-15 11:57 10.90938 124.87722 8565 ft 278 kts 81°
2026-04-15 11:58 10.91215 124.89656 8101 ft 275 kts 81°
2026-04-15 11:58 10.91489 124.91575 7598 ft 272 kts 81°
2026-04-15 11:58 10.91760 124.93457 7195 ft 265 kts 81°
2026-04-15 11:58 10.92021 124.95284 6839 ft 256 kts 81°
2026-04-15 11:59 10.92268 124.97028 6483 ft 244 kts 80°
2026-04-15 11:59 10.92692 124.98640 6134 ft 229 kts 62°
2026-04-15 11:59 10.93606 124.99894 5831 ft 214 kts 42°
2026-04-15 11:59 10.94804 125.00684 5501 ft 199 kts 22°
2026-04-15 12:00 10.96106 125.01001 5231 ft 188 kts
2026-04-15 12:00 10.97380 125.01080 4965 ft 179 kts
2026-04-15 12:00 10.98596 125.01161 4710 ft 171 kts
2026-04-15 12:00 10.99735 125.01237 4470 ft 158 kts
2026-04-15 12:01 11.00806 125.01309 4235 ft 150 kts
2026-04-15 12:01 11.01829 125.01377 4026 ft 145 kts
2026-04-15 12:01 11.02828 125.01443 3810 ft 142 kts
2026-04-15 12:01 11.03809 125.01508 3606 ft 141 kts
2026-04-15 12:02 11.04793 125.01573 3416 ft 141 kts
2026-04-15 12:02 11.05772 125.01638 3222 ft 141 kts
2026-04-15 12:02 11.06750 125.01703 3024 ft 141 kts
2026-04-15 12:02 11.07727 125.01767 2833 ft 141 kts
2026-04-15 12:03 11.08704 125.01832 2637 ft 141 kts
2026-04-15 12:03 11.09680 125.01897 2434 ft 140 kts
2026-04-15 12:03 11.10645 125.01960 2245 ft 138 kts
2026-04-15 12:03 11.11601 125.02023 2065 ft 135 kts
2026-04-15 12:04 11.12520 125.02084 1872 ft 130 kts
2026-04-15 12:04 11.13414 125.02144 1690 ft 128 kts
2026-04-15 12:04 11.14298 125.02204 1512 ft 128 kts
2026-04-15 12:04 11.15189 125.02264 1352 ft 128 kts
2026-04-15 12:05 11.16074 125.02323 1185 ft 127 kts
2026-04-15 12:05 11.16960 125.02383 1020 ft 128 kts
2026-04-15 12:05 11.17844 125.02444 838 ft 128 kts
2026-04-15 12:05 11.18733 125.02504 676 ft 127 kts
2026-04-15 12:06 11.19623 125.02563 510 ft 129 kts
2026-04-15 12:06 11.20518 125.02623 336 ft 129 kts
2026-04-15 12:06 11.21413 125.02676 143 ft 128 kts
2026-04-15 12:06 11.22284 125.02740 20 ft 115 kts
2026-04-15 12:07 11.22825 125.02779 17 ft 34 kts
2026-04-15 12:07 11.23054 125.02793 15 ft 36 kts
2026-04-15 12:07 11.23334 125.02812 14 ft 43 kts
2026-04-15 12:07 11.23604 125.02830 17 ft 31 kts
2026-04-15 12:08 11.23701 125.02811 17 ft 11 kts 21°
2026-04-15 12:08 11.23696 125.02841 17 ft 5 kts 153°
2026-04-15 12:08 11.23638 125.02836 17 ft 13 kts 192°
2026-04-15 12:08 11.23511 125.02824 17 ft 24 kts 184°
2026-04-15 12:09 11.23309 125.02811 14 ft 34 kts 183°
2026-04-15 12:09 11.23062 125.02794 17 ft 37 kts 184°
2026-04-15 12:09 11.22802 125.02777 15 ft 38 kts 184°
2026-04-15 12:09 11.22640 125.02767 17 ft 23 kts 184°
2026-04-15 12:10 11.22565 125.02712 17 ft 9 kts 268°
2026-04-15 12:10 11.22573 125.02667 16 ft 5 kts 298°
2026-04-15 12:10 11.22578 125.02660 16 ft 2 kts 303°
2026-04-15 12:10 11.22584 125.02651 18 ft 0 kts 306°